This is the latest recevied weather packets stored in our database for station/object EB5AGF-13. If no packets are shown the sender has not sent any weather packets the latest 1 day(s).
| Time | Temp. | Humidity | Pressure | Rain* | Wind** | Luminosity | Snow |
|---|---|---|---|---|---|---|---|
| 1778007672 | 19.44° C | 77% | 1007.3 hPa | 0 mm | 0 m/s | 1 W/m² | - |
| 1778007367 | 19.44° C | 76% | 1007.3 hPa | 0 mm | 0.89 m/s, 100° | 2 W/m² | - |
| 1778007063 | 19.44° C | 75% | 1007.4 hPa | 0 mm | 1.79 m/s, 230° | 4 W/m² | - |
| 1778006759 | 19.44° C | 75% | 1007.4 hPa | 0 mm | 2.68 m/s, 246° | 6 W/m² | - |
| 1778006455 | 19.44° C | 74% | 1007.3 hPa | 0 mm | 2.68 m/s, 223° | 9 W/m² | - |
| 1778005847 | 20° C | 73% | 1007.3 hPa | 0 mm | 0.89 m/s, 321° | 15 W/m² | - |
| 1778005543 | 20° C | 71% | 1007.4 hPa | 0 mm | 0.89 m/s, 248° | 18 W/m² | - |
| 1778005232 | 20° C | 71% | 1007.1 hPa | 0 mm | 1.34 m/s, 77° | 19 W/m² | - |
| 1778004931 | 20° C | 71% | 1007.1 hPa | 0 mm | 4.02 m/s, 182° | 21 W/m² | - |
| 1778004631 | 20° C | 71% | 1007.1 hPa | 0 mm | 1.34 m/s, 213° | 28 W/m² | - |
| 1778004327 | 20° C | 70% | 1006.9 hPa | 0 mm | 1.34 m/s, 208° | 29 W/m² | - |
| 1778004023 | 20.56° C | 69% | 1007 hPa | 0 mm | 1.79 m/s, 126° | 51 W/m² | - |
| 1778003719 | 20.56° C | 70% | 1006.9 hPa | 0 mm | 2.68 m/s, 137° | 58 W/m² | - |
| 1778003416 | 20° C | 72% | 1006.9 hPa | 0 mm | 2.24 m/s, 210° | 59 W/m² | - |
| 1778003111 | 20.56° C | 71% | 1006.8 hPa | 0 mm | 1.79 m/s, 181° | 53 W/m² | - |
| 1778002807 | 20.56° C | 71% | 1007 hPa | 0 mm | 1.79 m/s, 134° | 53 W/m² | - |
| 1778002503 | 20.56° C | 73% | 1007 hPa | 0 mm | 1.34 m/s, 181° | 93 W/m² | - |
| 1778002199 | 20.56° C | 72% | 1006.9 hPa | 0 mm | 4.02 m/s, 203° | 89 W/m² | - |
| 1778001895 | 21.11° C | 72% | 1007 hPa | 0 mm | 3.58 m/s, 219° | 112 W/m² | - |
| 1778001591 | 21.11° C | 71% | 1006.8 hPa | 0 mm | 0.89 m/s, 194° | 118 W/m² | - |
| 1778001288 | 21.11° C | 71% | 1006.8 hPa | 0 mm | 1.34 m/s, 202° | 117 W/m² | - |
| 1778000983 | 21.11° C | 69% | 1006.8 hPa | 0 mm | 3.13 m/s, 194° | 107 W/m² | - |
| 1778000680 | 21.11° C | 69% | 1006.7 hPa | 0 mm | 1.34 m/s, 312° | 146 W/m² | - |
| 1778000376 | 21.11° C | 70% | 1006.8 hPa | 0 mm | 1.34 m/s, 37° | 156 W/m² | - |
| 1778000073 | 21.11° C | 70% | 1006.8 hPa | 0 mm | 2.68 m/s, 202° | 165 W/m² | - |
* Rain latest hour (hover to see other rain measurements)
** Current wind speed in m/s (hover to see current wind gust speed)